Waarnemingen

Advertentie
Mijn weer
Skillinge, Zweden (2625): temperatuur & dauwpunt: 16.01.2018 17:00:00 - 22.01.2018 17:00:00 (CET)Skillinge, Zweden (2625): windsnelheid & windstoten: 16.01.2018 17:00:00 - 22.01.2018 17:00:00 (CET)Skillinge, Zweden (2625): windrichting: 16.01.2018 17:00:00 - 22.01.2018 17:00:00 (CET)Skillinge, Zweden (2625): luchtdruk: 16.01.2018 17:00:00 - 22.01.2018 17:00:00 (CET)Skillinge, Zweden (2625): zicht: 16.01.2018 17:00:00 - 22.01.2018 17:00:00 (CET)Skillinge, Zweden (2625): neerslag: 16.01.2018 17:00:00 - 22.01.2018 17:00:00 (CET)
Datum & Tijd tt [°C] td [°C] ff [km/u] ff [kn] fx [km/u] fx [kn] dd ppp [hPa] vv [km] rr [mm]
22.01.2018 17:00:00 - - - - - - - - - -
22.01.2018 16:00:00 1,5 -1,7 16 9 36 19 ZZO 1012,1 15 0,0
22.01.2018 15:00:00 1,5 -1,7 22 12 36 19 ZZO 1012,1 16 0,0
22.01.2018 14:00:00 1,6 -1,6 24 13 36 19 Z 1012,3 17 0,0
22.01.2018 13:00:00 1,4 -1,7 23 12 33 18 Z 1012,8 18 0,0
22.01.2018 12:00:00 1,1 -2,3 22 12 37 20 Z 1013,5 21 0,0
22.01.2018 11:00:00 1,1 -2,1 23 13 37 20 Z 1013,6 25 0,0
22.01.2018 10:00:00 1,2 -2,2 22 12 34 18 Z 1013,7 8 0,0
22.01.2018 09:00:00 1,0 -2,1 21 12 34 18 Z 1013,8 28 0,0
22.01.2018 08:00:00 0,9 -2,2 20 11 28 15 Z 1013,8 22 0,0
22.01.2018 07:00:00 0,7 -2,0 16 9 32 17 Z 1013,7 10 0,0
22.01.2018 06:00:00 0,5 -1,6 22 12 32 17 Z 1014,4 12 0,0
22.01.2018 05:00:00 0,4 -1,4 21 12 31 17 Z 1014,8 17 0,0
22.01.2018 04:00:00 0,4 -0,7 18 10 27 14 Z 1015,3 13 0,0
22.01.2018 03:00:00 0,1 -0,6 10 6 17 9 ZW 1015,5 8 0,0
22.01.2018 02:00:00 -1,5 -2,1 6 3 9 5 W 1015,8 7 0,0
22.01.2018 01:00:00 -2,9 -3,4 3 1 8 4 NNW 1016,3 11 0,0
22.01.2018 00:00:00 -4,4 -4,9 4 2 12 6 NW 1016,6 13 0,0
21.01.2018 23:00:00 -4,5 -5,0 4 2 12 6 NNW 1016,6 14 0,0
21.01.2018 22:00:00 -4,5 -5,3 5 3 10 6 NW 1016,7 14 0,0
21.01.2018 21:00:00 -2,8 -3,3 5 3 10 6 NW 1016,8 9 0,0
21.01.2018 20:00:00 -3,6 -4,1 9 5 10 5 NW 1017,0 16 0,0
21.01.2018 19:00:00 -1,9 -2,5 7 4 9 5 NNW 1016,7 11 0,0
21.01.2018 18:00:00 -1,1 -1,8 6 3 10 5 NNW 1016,9 8 0,0
21.01.2018 17:00:00 -0,2 -1,1 7 4 14 8 NNW 1016,6 8 0,0
21.01.2018 16:00:00 0,0 -1,4 5 3 14 7 NW 1016,2 27 0,0
21.01.2018 15:00:00 1,4 -0,5 7 4 15 8 N 1015,6 47 0,0
21.01.2018 14:00:00 1,5 -0,1 9 5 15 8 N 1014,9 31 0,0
21.01.2018 13:00:00 2,0 0,4 8 4 14 8 N 1014,5 26 0,0
21.01.2018 12:00:00 1,1 0,1 7 4 19 10 N 1013,7 14 0,0
21.01.2018 11:00:00 0,8 0,1 9 5 19 10 N 1013,1 10 0,0
21.01.2018 10:00:00 0,6 0,0 10 5 18 10 N 1012,5 19 0,0
21.01.2018 09:00:00 0,0 -0,7 9 5 16 9 N 1011,5 39 0,0
21.01.2018 08:00:00 0,4 -0,3 10 5 18 10 N 1010,5 50 0,0
21.01.2018 07:00:00 0,1 -0,6 8 4 22 12 NNW 1009,8 12 0,0
21.01.2018 06:00:00 0,3 -0,6 16 8 22 12 NNW 1009,2 34 0,1
21.01.2018 05:00:00 0,6 -0,7 11 6 19 10 NNW 1008,3 14 0,0
21.01.2018 04:00:00 0,4 -1,2 10 5 19 10 NW 1007,4 50 0,0
21.01.2018 03:00:00 0,6 -0,3 9 5 16 8 NNW 1007,0 24 0,1
21.01.2018 02:00:00 1,0 0,0 9 5 13 7 N 1006,3 10 0,0
21.01.2018 01:00:00 1,1 0,2 8 4 10 6 N 1005,6 10 0,0
21.01.2018 00:00:00 0,9 0,2 6 3 9 5 N 1005,3 10 0,0
20.01.2018 23:00:00 0,8 0,1 6 4 9 5 NNO 1004,9 10 0,0
20.01.2018 22:00:00 0,1 -0,6 0 0 8 4 N 1004,5 9 0,0
20.01.2018 21:00:00 0,1 -0,5 0 0 8 4 N 1004,4 10 0,0
20.01.2018 20:00:00 0,1 -0,5 5 3 8 4 NNW 1004,1 8 0,0
20.01.2018 19:00:00 0,1 -0,5 0 0 10 5 N 1003,9 9 0,0
20.01.2018 18:00:00 0,5 -0,2 4 2 21 11 W 1003,8 8 0,0
20.01.2018 17:00:00 1,3 0,4 6 4 21 11 ZZO 1003,8 13 0,0
20.01.2018 16:00:00 1,6 0,7 13 7 16 9 Z 1003,7 20 0,1
20.01.2018 15:00:00 1,7 0,7 2 1 5 3 W 1003,7 7 0,0
20.01.2018 14:00:00 2,4 1,7 0 0 21 11 N 1003,6 11 0,0
20.01.2018 13:00:00 1,1 0,4 5 3 21 11 WZW 1003,9 3,0 0,5
20.01.2018 12:00:00 1,7 1,0 14 8 19 11 ZW 1004,4 11 0,1
20.01.2018 11:00:00 1,0 0,6 8 4 17 9 ZW 1004,7 12 0,5
20.01.2018 10:00:00 0,8 0,4 8 4 14 8 ZW 1004,6 24 0,1
20.01.2018 09:00:00 0,8 0,4 7 4 14 8 ZW 1004,5 22 0,4
20.01.2018 08:00:00 0,3 -0,1 6 3 20 11 WZW 1004,2 3,0 0,9
20.01.2018 07:00:00 0,3 -0,3 6 4 20 11 ZZW 1004,2 0,9 1,8
20.01.2018 06:00:00 1,9 1,0 14 8 24 13 Z 1004,3 5 0,5
20.01.2018 05:00:00 1,7 1,0 14 8 24 13 Z 1004,4 5 0,0
20.01.2018 04:00:00 2,6 0,8 17 9 24 13 Z 1004,7 22 0,0
20.01.2018 03:00:00 2,3 1,4 6 3 13 7 Z 1005,0 17 0,6
20.01.2018 02:00:00 1,9 1,2 4 2 19 10 ZZO 1005,2 32 0,1
20.01.2018 01:00:00 1,4 0,8 6 3 19 10 ZZO 1005,3 50 0,1
20.01.2018 00:00:00 1,2 0,6 14 8 18 10 ZZW 1005,5 33 0,2
19.01.2018 23:00:00 1,2 0,5 8 5 12 6 WZW 1005,4 31 0,1
19.01.2018 22:00:00 0,9 0,2 0 0 12 6 N 1005,3 17 0,4
19.01.2018 21:00:00 0,7 0,0 0 0 5 3 N 1005,2 50 0,0
19.01.2018 20:00:00 0,8 -0,1 3 2 26 14 ZZW 1004,9 50 0,0
19.01.2018 19:00:00 0,9 -0,1 3 2 26 14 WZW 1004,8 6 0,2
19.01.2018 18:00:00 0,3 -0,8 3 2 6 4 ZW 1004,6 23 0,0
19.01.2018 17:00:00 0,7 -0,8 3 2 6 4 W 1004,5 34 0,0
19.01.2018 16:00:00 0,8 -1,1 5 3 7 4 WZW 1004,2 50 0,0
19.01.2018 15:00:00 2,5 -0,8 3 2 7 4 ZW 1003,8 50 0,0
19.01.2018 14:00:00 2,5 -0,4 2 1 9 5 ZZO 1003,6 49 0,0
19.01.2018 13:00:00 2,0 -0,9 4 2 9 5 ONO 1003,4 50 0,0
19.01.2018 12:00:00 1,8 -0,8 4 2 8 5 NO 1003,3 50 0,0
19.01.2018 11:00:00 1,3 -1,6 5 3 10 6 NO 1002,7 47 0,0
19.01.2018 10:00:00 0,5 -1,6 3 2 11 6 NNO 1002,0 50 0,0
19.01.2018 09:00:00 -0,2 -1,5 8 5 11 6 NNW 1001,2 39 0,0
19.01.2018 08:00:00 -0,4 -1,5 7 4 11 6 NW 1000,4 27 0,0
19.01.2018 07:00:00 -0,3 -1,4 7 4 11 6 NW 999,5 37 0,0
19.01.2018 06:00:00 -0,2 -1,2 8 4 11 6 WNW 999,1 39 0,0
19.01.2018 05:00:00 -0,2 -1,0 6 3 11 6 W 998,6 20 0,0
19.01.2018 04:00:00 -0,2 -1,0 3 2 10 6 WNW 997,9 30 0,0
19.01.2018 03:00:00 0,1 -1,0 5 3 13 7 NW 997,5 37 0,0
19.01.2018 02:00:00 0,4 -0,7 6 4 20 11 WNW 996,8 37 0,0
19.01.2018 01:00:00 0,8 -0,5 7 4 20 11 N 995,9 34 0,0
19.01.2018 00:00:00 0,9 -0,3 8 4 24 13 N 995,2 25 0,0
18.01.2018 23:00:00 1,6 0,3 12 7 27 15 N 994,3 34 0,0
18.01.2018 22:00:00 1,9 0,7 14 8 29 15 N 993,2 46 0,2
18.01.2018 21:00:00 1,4 0,2 14 8 33 18 NO 992,2 2,4 0,8
18.01.2018 20:00:00 2,7 1,2 23 13 33 18 O 990,9 15 0,0
18.01.2018 19:00:00 3,3 0,7 27 14 32 18 ONO 989,8 21 0,0
18.01.2018 18:00:00 3,3 0,7 25 13 33 18 O 988,9 20 0,0
18.01.2018 17:00:00 3,3 1,0 28 15 33 18 O 988,3 19 0,0
18.01.2018 16:00:00 3,2 0,8 24 13 30 16 O 988,0 16 0,0
18.01.2018 15:00:00 2,8 0,9 23 13 30 16 O 988,1 18 0,1
18.01.2018 14:00:00 2,6 1,0 15 8 32 17 ZO 988,6 15 0,1
18.01.2018 13:00:00 2,6 0,3 14 8 32 17 ZZO 989,4 13 0,0
18.01.2018 12:00:00 2,7 0,1 22 12 31 17 Z 990,3 33 0,0
18.01.2018 11:00:00 1,8 1,2 15 8 31 17 Z 991,6 8 0,9
18.01.2018 10:00:00 2,4 1,4 9 5 17 9 ZZO 992,5 28 0,0
18.01.2018 09:00:00 1,1 0,4 3 1 13 7 Z 993,1 18 0,0
18.01.2018 08:00:00 -0,8 -1,6 4 2 11 6 ZW 994,0 20 0,0
18.01.2018 07:00:00 -1,0 -2,0 4 2 18 10 W 994,0 28 0,0
18.01.2018 06:00:00 0,0 -1,1 10 5 18 10 W 994,5 43 0,0
18.01.2018 05:00:00 -0,9 -2,0 5 3 26 14 W 994,8 38 0,0
18.01.2018 04:00:00 -0,2 -2,3 8 4 26 14 WZW 995,0 50 0,0
18.01.2018 03:00:00 0,2 -1,4 11 6 20 11 W 995,1 50 0,0
18.01.2018 02:00:00 -0,1 -1,1 8 5 24 13 ZW 995,0 20 0,0
18.01.2018 01:00:00 0,0 -1,4 10 5 24 13 WZW 994,8 39 0,0
18.01.2018 00:00:00 0,6 -0,9 13 7 22 12 WZW 994,9 34 0,0
17.01.2018 23:00:00 0,6 -0,5 14 8 22 12 WZW 994,3 19 0,0
17.01.2018 22:00:00 0,5 -0,5 13 7 22 12 WZW 993,8 22 0,0
17.01.2018 21:00:00 0,4 -0,9 11 6 22 12 W 993,3 27 0,0
17.01.2018 20:00:00 0,6 -0,3 13 7 19 11 W 992,7 18 0,0
17.01.2018 19:00:00 -0,3 -1,0 9 5 16 8 W 992,2 18 0,0
17.01.2018 18:00:00 0,0 -0,8 9 5 13 7 W 991,6 14 0,0
17.01.2018 17:00:00 0,3 -0,4 9 5 13 7 W 990,9 28 0,0
17.01.2018 16:00:00 0,6 -0,3 6 4 15 8 W 990,3 16 0,0
17.01.2018 15:00:00 1,9 0,6 8 5 15 8 W 989,7 27 0,0
17.01.2018 14:00:00 1,9 0,9 8 4 16 9 W 989,2 33 0,0
17.01.2018 13:00:00 2,3 1,0 11 6 16 9 WZW 988,6 45 0,0
17.01.2018 12:00:00 1,6 0,9 11 6 15 8 WZW 988,3 31 0,0
17.01.2018 11:00:00 0,5 -0,1 5 3 11 6 WZW 987,9 25 0,0
17.01.2018 10:00:00 0,5 -0,1 6 4 11 6 W 987,4 25 0,0
17.01.2018 09:00:00 0,2 -0,4 8 4 10 5 WZW 987,1 21 0,0
17.01.2018 08:00:00 0,3 -0,4 5 3 10 5 WZW 986,3 18 0,0
17.01.2018 07:00:00 0,6 -0,3 4 2 14 7 WZW 985,9 10 0,0
17.01.2018 06:00:00 0,6 -0,7 6 3 20 11 WZW 985,7 32 0,0
17.01.2018 05:00:00 1,5 0,3 8 5 24 13 W 985,5 24 0,0
17.01.2018 04:00:00 1,4 -0,1 10 5 24 13 W 985,5 35 0,0
17.01.2018 03:00:00 1,6 0,4 13 7 24 13 WZW 985,4 27 0,0
17.01.2018 02:00:00 1,8 0,2 13 7 21 12 W 985,2 42 0,0
17.01.2018 01:00:00 2,0 0,5 10 5 22 12 W 985,2 47 0,0
17.01.2018 00:00:00 1,9 0,4 13 7 22 12 WZW 985,1 - 0,0
16.01.2018 23:00:00 1,3 0,6 10 5 22 12 WZW 984,9 31 0,1
16.01.2018 22:00:00 1,5 0,2 11 6 19 10 WZW 984,7 45 0,0
16.01.2018 21:00:00 1,4 0,2 8 4 23 12 WZW 984,7 44 0,0
16.01.2018 20:00:00 1,9 0,7 6 4 29 16 ZW 984,9 49 0,0
16.01.2018 19:00:00 2,9 1,7 13 7 37 20 ZW 984,9 26 0,2
16.01.2018 18:00:00 2,4 1,2 16 9 37 20 ZW 984,9 6 0,3
16.01.2018 17:00:00 4,0 2,8 24 13 35 19 ZZW 985,0 16 0,0

tt = temperatuur
td = dauwpunt
ff = windsnelheid
fx = windstoten
dd = windrichting
ppp = luchtdruk
vv = zicht
rr = neerslag

Weerstations in de omgeving